DELTA 1 DEB, 10837

Orbit data source: Space-Track

DELTA 1 DEB, 10837 is space debris in SSO originally from a launch on Thu, 29 Jul 1976 UTC launched from the Air Force Western Test Range (AFWTR). Debris objects in space refer to the collection of defunct objects orbiting the Earth. Examples of debris include non-operational satellites, rocket bodies, and fragments generated from explosions, collisions, or faulty payload assembly.

Loading next visibility...
Identifier
10837, 1976-077CH
Orbit
SSO
Country
Flag of USUS
Related business
Manufacturer
Unknown
Mission
Spacecraft
Bus & Motor
Unknown
Mass
Unknown
Launch date (UTC)
1976-07-29 (50 years ago)
Launch vehicle
Unknown
Launch site
Air Force Western Test Range (AFWTR)
Object type
Payload
Rocket body
Debris
Shape & HBR
Unknown shape, 0.1 m
Radar Cross Section
Small (<0.1 m²)

Expand to show TLE details & history
Last TLE update: 21 hours ago

TLE from 21 hours ago
0 DELTA 1 DEB
1 10837U 76077CH  26118.31142784  .00000012  00000-0  60483-3 0  9991
2 10837 102.3282  49.0174 0197565 266.5761 248.0573 12.04496592187614
Epoch: 2026-04-28T07:28Z
TLE epoch observation values (Epoch: 2026-04-28T07:28:27.365Z)
Latitude
26.79788°
Longitude
-93.0778°
Altitude
1,725.718 km
Speed
6.99 km/s
True Right ascension
15h 41m 17s
True Declination
26° 40' 34"
Sunlit
Object was in full shadow at epoch
Visualization orbit readout
Latitude
Unknown
Longitude
Unknown
Altitude
Unknown
Speed
Unknown
Apparent Right ascension
Unknown
Apparent Declination
Unknown
Sunlit
N/A
Visualization observer readout
Local Sidereal Time
12:03:36
Azimuth
Unknown
Elevation
Unknown
Doppler factor
Unknown
Orbital elements
Apogee altitude
1,817.205 km
Perigee altitude
1,499.656 km
Semi-major axis
8,036.567 km
Eccentricity
0.01976
Inclination
102.3282°
RAAN
49.0174°
Arg. of periapsis
266.5761°
True anomaly
245.97704°
Mean anomaly
248.0573°
Eccentric anomaly
247.0152°
Mean motion
3.01257 °/min
Orbital period
119.5 mins
BSTAR
0.00060483
Loading maneuver chart data...
Computing Atmospheric mass density...
Loading historical data...
Loading historical data...
Loading historical data...
Loading historical data...
Loading historical data...
Loading historical data...
Loading historical data...

Documentation

Showing up to 5 results
|